Year,Month,Day,Hour,Minute,Value (Times are PST for temperature in C)
2015,06,30,00,00,15.60
2015,06,30,00,01,15.60
2015,06,30,00,02,15.60
2015,06,30,00,03,15.60
2015,06,30,00,04,15.60
2015,06,30,00,05,15.60
2015,06,30,00,06,15.60
2015,06,30,00,07,15.60
2015,06,30,00,08,15.60
2015,06,30,00,09,15.60
2015,06,30,00,10,15.50
2015,06,30,00,11,15.50
2015,06,30,00,12,15.40
2015,06,30,00,13,15.40
2015,06,30,00,14,15.40
2015,06,30,00,15,15.40
2015,06,30,00,16,15.40
2015,06,30,00,17,15.30
2015,06,30,00,18,15.30
2015,06,30,00,19,15.30
2015,06,30,00,20,15.30
2015,06,30,00,21,15.30
2015,06,30,00,22,15.30
2015,06,30,00,23,15.30
2015,06,30,00,24,15.20
2015,06,30,00,25,15.20
2015,06,30,00,26,15.20
2015,06,30,00,27,15.20
2015,06,30,00,28,15.10
2015,06,30,00,29,15.10
2015,06,30,00,30,15.10
2015,06,30,00,31,15.10
2015,06,30,00,32,15.10
2015,06,30,00,33,15.10
2015,06,30,00,34,15.10
2015,06,30,00,35,15.10
2015,06,30,00,36,15.10
2015,06,30,00,37,15.10
2015,06,30,00,38,15.10
2015,06,30,00,39,15.10
2015,06,30,00,40,15.10
2015,06,30,00,41,15.10
2015,06,30,00,42,15.10
2015,06,30,00,43,15.10
2015,06,30,00,44,15.10
2015,06,30,00,45,15.10
2015,06,30,00,46,15.10
2015,06,30,00,47,15.00
2015,06,30,00,48,15.00
2015,06,30,00,49,15.00
2015,06,30,00,50,15.10
2015,06,30,00,51,15.00
2015,06,30,00,52,15.00
2015,06,30,00,53,15.00
2015,06,30,00,54,15.00
2015,06,30,00,55,15.00
2015,06,30,00,56,15.00
2015,06,30,00,57,15.00
2015,06,30,00,58,15.00
2015,06,30,00,59,15.00
2015,06,30,01,00,14.90
2015,06,30,01,01,14.90
2015,06,30,01,02,14.90
2015,06,30,01,03,14.90
2015,06,30,01,04,14.90
2015,06,30,01,05,14.90
2015,06,30,01,06,14.90
2015,06,30,01,07,15.00
2015,06,30,01,08,15.00
2015,06,30,01,09,15.00
2015,06,30,01,10,15.00
2015,06,30,01,11,15.00
2015,06,30,01,12,14.90
2015,06,30,01,13,14.90
2015,06,30,01,14,14.90
2015,06,30,01,15,14.90
2015,06,30,01,16,14.90
2015,06,30,01,17,14.90
2015,06,30,01,18,14.90
2015,06,30,01,19,14.90
2015,06,30,01,20,14.90
2015,06,30,01,21,14.80
2015,06,30,01,22,14.80
2015,06,30,01,23,14.80
2015,06,30,01,24,14.80
2015,06,30,01,25,14.80
2015,06,30,01,26,14.70
2015,06,30,01,27,14.70
2015,06,30,01,28,14.70
2015,06,30,01,29,14.70
2015,06,30,01,30,14.60
2015,06,30,01,31,14.60
2015,06,30,01,32,14.60
2015,06,30,01,33,14.60
2015,06,30,01,34,14.60
2015,06,30,01,35,14.60
2015,06,30,01,36,14.60
2015,06,30,01,37,14.60
2015,06,30,01,38,14.60
2015,06,30,01,39,14.60
2015,06,30,01,40,14.60
2015,06,30,01,41,14.60
2015,06,30,01,42,14.50
2015,06,30,01,43,14.50
2015,06,30,01,44,14.40
2015,06,30,01,45,14.40
2015,06,30,01,46,14.40
2015,06,30,01,47,14.40
2015,06,30,01,48,14.40
2015,06,30,01,49,14.40
2015,06,30,01,50,14.40
2015,06,30,01,51,14.40
2015,06,30,01,52,14.40
2015,06,30,01,53,14.40
2015,06,30,01,54,14.40
2015,06,30,01,55,14.30
2015,06,30,01,56,14.30
2015,06,30,01,57,14.30
2015,06,30,01,58,14.30
2015,06,30,01,59,14.30
2015,06,30,02,00,14.30
2015,06,30,02,01,14.20
2015,06,30,02,02,14.20
2015,06,30,02,03,14.20
2015,06,30,02,04,14.20
2015,06,30,02,05,14.20
2015,06,30,02,06,14.20
2015,06,30,02,07,14.20
2015,06,30,02,08,14.20
2015,06,30,02,09,14.20
2015,06,30,02,10,14.20
2015,06,30,02,11,14.20
2015,06,30,02,12,14.20
2015,06,30,02,13,14.20
2015,06,30,02,14,14.20
2015,06,30,02,15,14.20
2015,06,30,02,16,14.20
2015,06,30,02,17,14.20
2015,06,30,02,18,14.20
2015,06,30,02,19,14.30
2015,06,30,02,20,14.30
2015,06,30,02,21,14.20
2015,06,30,02,22,14.20
2015,06,30,02,23,14.20
2015,06,30,02,24,14.30
2015,06,30,02,25,14.30
2015,06,30,02,26,14.30
2015,06,30,02,27,14.30
2015,06,30,02,28,14.30
2015,06,30,02,29,14.30
2015,06,30,02,30,14.40
2015,06,30,02,31,14.40
2015,06,30,02,32,14.40
2015,06,30,02,33,14.30
2015,06,30,02,34,14.30
2015,06,30,02,35,14.30
2015,06,30,02,36,14.30
2015,06,30,02,37,14.30
2015,06,30,02,38,14.30
2015,06,30,02,39,14.30
2015,06,30,02,40,14.30
2015,06,30,02,41,14.20
2015,06,30,02,42,14.20
2015,06,30,02,43,14.20
2015,06,30,02,44,14.30
2015,06,30,02,45,14.30
2015,06,30,02,46,14.30
2015,06,30,02,47,14.30
2015,06,30,02,48,14.40
2015,06,30,02,49,14.40
2015,06,30,02,50,14.40
2015,06,30,02,51,14.40
2015,06,30,02,52,14.40
2015,06,30,02,53,14.40
2015,06,30,02,54,14.40
2015,06,30,02,55,14.40
2015,06,30,02,56,14.40
2015,06,30,02,57,14.40
2015,06,30,02,58,14.40
2015,06,30,02,59,14.40
2015,06,30,03,00,14.40
2015,06,30,03,01,14.40
2015,06,30,03,02,14.40
2015,06,30,03,03,14.40
2015,06,30,03,04,14.40
2015,06,30,03,05,14.40
2015,06,30,03,06,14.40
2015,06,30,03,07,14.40
2015,06,30,03,08,14.40
2015,06,30,03,09,14.40
2015,06,30,03,10,14.40
2015,06,30,03,11,14.40
2015,06,30,03,12,14.40
2015,06,30,03,13,14.40
2015,06,30,03,14,14.40
2015,06,30,03,15,14.40
2015,06,30,03,16,14.40
2015,06,30,03,17,14.40
2015,06,30,03,18,14.50
2015,06,30,03,19,14.50
2015,06,30,03,20,14.50
2015,06,30,03,21,14.50
2015,06,30,03,22,14.50
2015,06,30,03,23,14.40
2015,06,30,03,24,14.40
2015,06,30,03,25,14.40
2015,06,30,03,26,14.40
2015,06,30,03,27,14.40
2015,06,30,03,28,14.40
2015,06,30,03,29,14.40
2015,06,30,03,30,14.40
2015,06,30,03,31,14.40
2015,06,30,03,32,14.40
2015,06,30,03,33,14.40
2015,06,30,03,34,14.40
2015,06,30,03,35,14.40
2015,06,30,03,36,14.40
2015,06,30,03,37,14.40
2015,06,30,03,38,14.40
2015,06,30,03,39,14.40
2015,06,30,03,40,14.40
2015,06,30,03,41,14.40
2015,06,30,03,42,14.40
2015,06,30,03,43,14.40
2015,06,30,03,44,14.40
2015,06,30,03,45,14.30
2015,06,30,03,46,14.40
2015,06,30,03,47,14.40
2015,06,30,03,48,14.40
2015,06,30,03,49,14.40
2015,06,30,03,50,14.40
2015,06,30,03,51,14.40
2015,06,30,03,52,14.40
2015,06,30,03,53,14.40
2015,06,30,03,54,14.40
2015,06,30,03,55,14.30
2015,06,30,03,56,14.30
2015,06,30,03,57,14.30
2015,06,30,03,58,14.30
2015,06,30,03,59,14.30
2015,06,30,04,00,14.30
2015,06,30,04,01,14.30
2015,06,30,04,02,14.30
2015,06,30,04,03,14.30
2015,06,30,04,04,14.30
2015,06,30,04,05,14.30
2015,06,30,04,06,14.30
2015,06,30,05,02,14.30
2015,06,30,05,03,14.40
2015,06,30,05,04,14.40
2015,06,30,05,05,14.40
2015,06,30,05,06,14.40
2015,06,30,05,07,14.40
2015,06,30,05,08,14.40
2015,06,30,05,09,14.40
2015,06,30,05,10,14.50
2015,06,30,05,11,14.50
2015,06,30,05,12,14.50
2015,06,30,05,13,14.60
2015,06,30,05,14,14.60
2015,06,30,05,15,14.60
2015,06,30,05,16,14.60
2015,06,30,05,17,14.70
2015,06,30,05,18,14.70
2015,06,30,05,19,14.70
2015,06,30,05,20,14.70
2015,06,30,05,21,14.70
2015,06,30,05,22,14.70
2015,06,30,05,23,14.70
2015,06,30,05,24,14.70
2015,06,30,05,25,14.70
2015,06,30,05,26,14.70
2015,06,30,05,27,14.70
2015,06,30,05,28,14.70
2015,06,30,05,29,14.70
2015,06,30,05,30,14.70
2015,06,30,05,31,14.60
2015,06,30,05,32,14.70
2015,06,30,05,33,14.70
2015,06,30,05,34,14.60
2015,06,30,05,35,14.60
2015,06,30,05,36,14.60
2015,06,30,05,37,14.60
2015,06,30,05,38,14.60
2015,06,30,05,39,14.60
2015,06,30,05,40,14.60
2015,06,30,05,41,14.60
2015,06,30,05,42,14.60
2015,06,30,05,43,14.60
2015,06,30,05,44,14.60
2015,06,30,05,45,14.60
2015,06,30,05,46,14.70
2015,06,30,05,47,14.70
2015,06,30,05,48,14.60
2015,06,30,05,49,14.60
2015,06,30,05,50,14.60
2015,06,30,05,51,14.70
2015,06,30,05,52,14.70
2015,06,30,05,53,14.70
2015,06,30,05,54,14.60
2015,06,30,05,55,14.60
2015,06,30,05,56,14.60
2015,06,30,05,57,14.60
2015,06,30,05,58,14.60
2015,06,30,05,59,14.60
2015,06,30,06,00,14.60
2015,06,30,06,01,14.60
2015,06,30,06,02,14.60
2015,06,30,06,03,14.60
2015,06,30,06,04,14.60
2015,06,30,06,05,14.60
2015,06,30,06,06,14.70
2015,06,30,06,07,14.70
2015,06,30,06,08,14.60
2015,06,30,06,09,14.60
2015,06,30,06,10,14.60
2015,06,30,06,11,14.60
2015,06,30,06,12,14.60
2015,06,30,06,13,14.60
2015,06,30,06,14,14.60
2015,06,30,06,15,14.60
2015,06,30,06,16,14.70
2015,06,30,06,17,14.70
2015,06,30,06,18,14.70
2015,06,30,06,19,14.70
2015,06,30,06,20,14.70
2015,06,30,06,21,14.70
2015,06,30,06,22,14.80
2015,06,30,06,23,14.80
2015,06,30,06,24,14.80
2015,06,30,06,25,14.80
2015,06,30,06,26,14.90
2015,06,30,06,27,14.90
2015,06,30,06,28,14.90
2015,06,30,06,29,14.90
2015,06,30,06,30,14.90
2015,06,30,06,31,14.90
2015,06,30,06,32,14.90
2015,06,30,06,33,15.00
2015,06,30,06,34,15.00
2015,06,30,06,35,15.00
2015,06,30,06,36,15.10
2015,06,30,06,37,15.10
2015,06,30,06,38,15.10
2015,06,30,06,39,15.10
2015,06,30,06,40,15.20
2015,06,30,06,41,15.20
2015,06,30,06,42,15.20
2015,06,30,06,43,15.20
2015,06,30,06,44,15.20
2015,06,30,06,45,15.20
2015,06,30,06,46,15.20
2015,06,30,06,47,15.20
2015,06,30,06,48,15.20
2015,06,30,06,49,15.30
2015,06,30,06,50,15.30
2015,06,30,06,51,15.30
2015,06,30,06,52,15.30
2015,06,30,06,53,15.40
2015,06,30,06,54,15.40
2015,06,30,06,55,15.40
2015,06,30,06,56,15.40
2015,06,30,06,57,15.40
2015,06,30,06,58,15.50
2015,06,30,06,59,15.50
2015,06,30,07,00,15.50
2015,06,30,07,01,15.60
2015,06,30,07,02,15.60
2015,06,30,07,03,15.60
2015,06,30,07,04,15.60
2015,06,30,07,05,15.60
2015,06,30,07,06,15.60
2015,06,30,07,07,15.60
2015,06,30,07,08,15.60
2015,06,30,07,09,15.70
2015,06,30,07,10,15.70
2015,06,30,07,11,15.70
2015,06,30,07,12,15.70
2015,06,30,07,13,15.70
2015,06,30,07,14,15.70
2015,06,30,07,15,15.70
2015,06,30,07,16,15.70
2015,06,30,07,17,15.70
2015,06,30,07,18,15.70
2015,06,30,07,19,15.70
2015,06,30,07,20,15.70
2015,06,30,07,21,15.70
2015,06,30,07,22,15.70
2015,06,30,07,23,15.80
2015,06,30,07,24,15.80
2015,06,30,07,25,15.80
2015,06,30,07,26,15.80
2015,06,30,07,27,15.80
2015,06,30,07,28,15.80
2015,06,30,07,29,15.80
2015,06,30,07,30,15.80
2015,06,30,07,31,15.90
2015,06,30,07,32,15.90
2015,06,30,07,33,15.90
2015,06,30,07,34,16.00
2015,06,30,07,35,16.00
2015,06,30,07,36,16.00
2015,06,30,07,37,16.10
2015,06,30,07,38,16.10
2015,06,30,07,39,16.10
2015,06,30,07,40,16.10
2015,06,30,07,41,16.20
2015,06,30,07,42,16.30
2015,06,30,07,43,16.30
2015,06,30,07,44,16.30
2015,06,30,07,45,16.40
2015,06,30,07,46,16.40
2015,06,30,07,47,16.40
2015,06,30,07,48,16.50
2015,06,30,07,49,16.50
2015,06,30,07,50,16.50
2015,06,30,07,51,16.60
2015,06,30,07,52,16.60
2015,06,30,07,53,16.60
2015,06,30,07,54,16.60
2015,06,30,07,55,16.70
2015,06,30,07,56,16.70
2015,06,30,07,57,16.70
2015,06,30,07,58,16.70
2015,06,30,07,59,16.70
2015,06,30,08,00,16.80
2015,06,30,08,01,16.80
2015,06,30,08,02,16.80
2015,06,30,08,03,16.80
2015,06,30,08,04,16.80
2015,06,30,08,05,16.80
2015,06,30,08,06,16.80
2015,06,30,08,07,16.90
2015,06,30,08,08,16.90
2015,06,30,08,09,16.90
2015,06,30,08,10,16.90
2015,06,30,08,11,16.90
2015,06,30,08,12,16.80
2015,06,30,08,13,16.80
2015,06,30,08,14,16.90
2015,06,30,08,15,16.90
2015,06,30,08,16,16.90
2015,06,30,08,17,16.90
2015,06,30,08,18,16.90
2015,06,30,08,19,16.90
2015,06,30,08,20,16.90
2015,06,30,08,21,16.90
2015,06,30,08,22,16.90
2015,06,30,08,23,16.90
2015,06,30,08,24,16.90
2015,06,30,08,25,16.90
2015,06,30,08,26,16.90
2015,06,30,08,27,16.90
2015,06,30,08,28,16.90
2015,06,30,08,29,16.90
2015,06,30,08,30,16.90
2015,06,30,08,31,16.90
2015,06,30,08,32,16.90
2015,06,30,08,33,17.00
2015,06,30,08,34,17.00
2015,06,30,08,35,17.10
2015,06,30,08,36,17.10
2015,06,30,08,37,17.20
2015,06,30,08,38,17.20
2015,06,30,08,39,17.30
2015,06,30,08,40,17.30
2015,06,30,08,41,17.30
2015,06,30,08,42,17.40
2015,06,30,08,43,17.40
2015,06,30,08,44,17.50
2015,06,30,08,45,17.50
2015,06,30,08,46,17.60
2015,06,30,08,47,17.60
2015,06,30,08,48,17.70
2015,06,30,08,49,17.80
2015,06,30,08,50,17.90
2015,06,30,08,51,18.00
2015,06,30,08,52,18.10
2015,06,30,08,53,18.20
2015,06,30,08,54,18.30
2015,06,30,08,55,18.30
2015,06,30,08,56,18.40
2015,06,30,08,57,18.40
2015,06,30,08,58,18.50
2015,06,30,08,59,18.60
2015,06,30,09,00,18.70
2015,06,30,09,01,18.70
2015,06,30,09,02,18.80
2015,06,30,09,03,18.90
2015,06,30,09,04,19.00
2015,06,30,09,05,19.20
2015,06,30,09,06,19.20
2015,06,30,09,07,19.30
2015,06,30,09,08,19.30
2015,06,30,09,09,19.40
2015,06,30,09,10,19.30
2015,06,30,09,11,19.30
2015,06,30,09,12,19.10
2015,06,30,09,13,18.80
2015,06,30,09,14,18.60
2015,06,30,09,15,18.50
2015,06,30,09,16,18.50
2015,06,30,09,17,18.50
2015,06,30,09,18,18.60
2015,06,30,09,19,18.70
2015,06,30,09,20,18.80
2015,06,30,09,21,18.90
2015,06,30,09,22,18.90
2015,06,30,09,23,18.80
2015,06,30,09,24,18.80
2015,06,30,09,25,18.80
2015,06,30,09,26,18.80
2015,06,30,09,27,18.80
2015,06,30,09,28,18.70
2015,06,30,09,29,18.70
2015,06,30,09,30,18.70
2015,06,30,09,31,18.70
2015,06,30,09,32,18.70
2015,06,30,09,33,18.70
2015,06,30,09,34,18.80
2015,06,30,09,35,18.90
2015,06,30,09,36,18.90
2015,06,30,09,37,18.90
2015,06,30,09,38,19.00
2015,06,30,09,39,19.00
2015,06,30,09,40,19.00
2015,06,30,09,41,19.00
2015,06,30,09,42,19.10
2015,06,30,09,43,19.10
2015,06,30,09,44,19.10
2015,06,30,09,45,19.10
2015,06,30,09,46,19.00
2015,06,30,09,47,18.90
2015,06,30,09,48,18.90
2015,06,30,09,49,18.90
2015,06,30,09,50,18.80
2015,06,30,09,51,18.80
2015,06,30,09,52,18.70
2015,06,30,09,53,18.70
2015,06,30,09,54,18.60
2015,06,30,09,55,18.70
2015,06,30,09,56,18.70
2015,06,30,09,57,18.70
2015,06,30,09,58,18.70
2015,06,30,09,59,18.60
2015,06,30,10,00,18.60
2015,06,30,10,01,18.60
2015,06,30,10,02,18.50
2015,06,30,10,03,18.40
2015,06,30,10,04,18.50
2015,06,30,10,05,18.60
2015,06,30,10,06,18.70
2015,06,30,10,07,18.70
2015,06,30,10,08,18.80
2015,06,30,10,09,18.90
2015,06,30,10,10,19.00
2015,06,30,10,11,19.00
2015,06,30,10,12,19.10
2015,06,30,10,13,19.20
2015,06,30,10,14,19.30
2015,06,30,10,15,19.40
2015,06,30,10,16,19.50
2015,06,30,10,17,19.40
2015,06,30,10,18,19.30
2015,06,30,10,19,19.20
2015,06,30,10,20,19.00
2015,06,30,10,21,18.90
2015,06,30,10,22,18.80
2015,06,30,10,23,18.80
2015,06,30,10,24,18.70
2015,06,30,10,25,18.80
2015,06,30,10,26,18.80
2015,06,30,10,27,18.80
2015,06,30,10,28,18.80
2015,06,30,10,29,18.80
2015,06,30,10,30,18.80
2015,06,30,10,31,18.80
2015,06,30,10,32,18.90
2015,06,30,10,33,19.10
2015,06,30,10,34,19.20
2015,06,30,10,35,19.40
2015,06,30,10,36,19.50
2015,06,30,10,37,19.70
2015,06,30,10,38,19.70
2015,06,30,10,39,19.70
2015,06,30,10,40,19.70
2015,06,30,10,41,19.80
2015,06,30,10,42,19.80
2015,06,30,10,43,19.80
2015,06,30,10,44,19.80
2015,06,30,10,45,19.80
2015,06,30,10,46,19.80
2015,06,30,10,47,19.80
2015,06,30,10,48,19.90
2015,06,30,10,49,19.90
2015,06,30,10,50,19.80
2015,06,30,10,51,19.90
2015,06,30,10,52,20.00
2015,06,30,10,53,20.00
2015,06,30,10,54,20.10
2015,06,30,10,55,20.10
2015,06,30,10,56,20.20
2015,06,30,10,57,20.30
2015,06,30,10,58,20.30
2015,06,30,10,59,20.30
2015,06,30,11,00,20.30
2015,06,30,11,01,20.30
2015,06,30,11,02,20.40
2015,06,30,11,03,20.40
2015,06,30,11,04,20.40
2015,06,30,11,05,20.50
2015,06,30,11,06,20.40
2015,06,30,11,07,20.40
2015,06,30,11,08,20.30
2015,06,30,11,09,20.30
2015,06,30,11,10,20.40
2015,06,30,11,11,20.40
2015,06,30,11,12,20.50
2015,06,30,11,13,20.60
2015,06,30,11,14,20.70
2015,06,30,11,15,20.80
2015,06,30,11,16,20.80
2015,06,30,11,17,20.80
2015,06,30,11,18,20.90
2015,06,30,11,19,20.90
2015,06,30,11,20,20.90
2015,06,30,11,21,21.00
2015,06,30,11,22,21.10
2015,06,30,11,23,21.20
2015,06,30,11,24,21.30
2015,06,30,11,25,21.30
2015,06,30,11,26,21.40
2015,06,30,11,27,21.40
2015,06,30,11,28,21.40
2015,06,30,11,29,21.40
2015,06,30,11,30,21.30
2015,06,30,11,31,21.10
2015,06,30,11,32,21.00
2015,06,30,11,33,20.90
2015,06,30,11,34,20.80
2015,06,30,11,35,20.80
2015,06,30,11,36,20.70
2015,06,30,11,37,20.60
2015,06,30,11,38,20.50
2015,06,30,11,39,20.40
2015,06,30,11,40,20.40
2015,06,30,11,41,20.40
2015,06,30,11,42,20.40
2015,06,30,11,43,20.40
2015,06,30,11,44,20.40
2015,06,30,11,45,20.30
2015,06,30,11,46,20.30
2015,06,30,11,47,20.30
2015,06,30,11,48,20.40
2015,06,30,11,49,20.40
2015,06,30,11,50,20.60
2015,06,30,11,51,20.70
2015,06,30,11,52,20.90
2015,06,30,11,53,21.00
2015,06,30,11,54,21.10
2015,06,30,11,55,21.10
2015,06,30,11,56,21.10
2015,06,30,11,57,21.10
2015,06,30,11,58,21.20
2015,06,30,11,59,21.30
2015,06,30,12,00,21.40
2015,06,30,12,01,21.50
2015,06,30,12,02,21.50
2015,06,30,12,03,21.60
2015,06,30,12,04,21.70
2015,06,30,12,05,21.70
2015,06,30,12,06,21.70
2015,06,30,12,07,21.70
2015,06,30,12,08,21.70
2015,06,30,12,09,21.80
2015,06,30,12,10,21.90
2015,06,30,12,11,22.00
2015,06,30,12,12,22.10
2015,06,30,12,13,22.20
2015,06,30,12,14,22.30
2015,06,30,12,15,22.40
2015,06,30,12,16,22.40
2015,06,30,12,17,22.40
2015,06,30,12,18,22.30
2015,06,30,12,19,22.30
2015,06,30,12,20,22.30
2015,06,30,12,21,22.30
2015,06,30,12,22,22.40
2015,06,30,12,23,22.50
2015,06,30,12,24,22.60
2015,06,30,12,25,22.70
2015,06,30,12,26,22.80
2015,06,30,12,27,23.00
2015,06,30,12,28,23.00
2015,06,30,12,29,23.10
2015,06,30,12,30,23.10
2015,06,30,12,31,23.00
2015,06,30,12,32,22.90
2015,06,30,12,33,22.90
2015,06,30,12,34,22.90
2015,06,30,12,35,23.00
2015,06,30,12,36,23.00
2015,06,30,12,37,23.00
2015,06,30,12,38,23.00
2015,06,30,12,39,22.90
2015,06,30,12,40,22.80
2015,06,30,12,41,22.80
2015,06,30,12,42,22.70
2015,06,30,12,43,22.60
2015,06,30,12,44,22.60
2015,06,30,12,45,22.50
2015,06,30,12,46,22.40
2015,06,30,12,47,22.30
2015,06,30,12,48,22.40
2015,06,30,12,49,22.30
2015,06,30,12,50,22.40
2015,06,30,12,51,22.40
2015,06,30,12,52,22.40
2015,06,30,12,53,22.40
2015,06,30,12,54,22.40
2015,06,30,12,55,22.40
2015,06,30,12,56,22.30
2015,06,30,12,57,22.40
2015,06,30,12,58,22.50
2015,06,30,12,59,22.60
2015,06,30,13,00,22.60
2015,06,30,13,01,22.60
2015,06,30,13,02,22.60
2015,06,30,13,03,22.50
2015,06,30,13,04,22.60
2015,06,30,13,05,22.70
2015,06,30,13,06,22.70
2015,06,30,13,07,22.80
2015,06,30,13,08,22.80
2015,06,30,13,09,22.80
2015,06,30,13,10,22.80
2015,06,30,13,11,22.80
2015,06,30,13,12,22.80
2015,06,30,13,13,22.80
2015,06,30,13,14,22.80
2015,06,30,13,15,22.90
2015,06,30,13,16,23.00
2015,06,30,13,17,23.10
2015,06,30,13,18,23.00
2015,06,30,13,19,22.90
2015,06,30,13,20,22.80
2015,06,30,13,21,22.90
2015,06,30,13,22,23.00
2015,06,30,13,23,23.10
2015,06,30,13,24,23.10
2015,06,30,13,25,23.10
2015,06,30,13,26,23.10
2015,06,30,13,27,23.20
2015,06,30,13,28,23.20
2015,06,30,13,29,23.10
2015,06,30,13,30,23.10
2015,06,30,13,31,23.10
2015,06,30,13,32,23.10
2015,06,30,13,33,23.20
2015,06,30,13,34,23.20
2015,06,30,13,35,23.10
2015,06,30,13,36,23.10
2015,06,30,13,37,23.10
2015,06,30,13,38,23.10
2015,06,30,13,39,23.20
2015,06,30,13,40,23.30
2015,06,30,13,41,23.40
2015,06,30,13,42,23.30
2015,06,30,13,43,23.20
2015,06,30,13,44,23.20
2015,06,30,13,45,23.20
2015,06,30,13,46,23.20
2015,06,30,13,47,23.30
2015,06,30,13,48,23.20
2015,06,30,13,49,23.20
2015,06,30,13,50,23.30
2015,06,30,13,51,23.40
2015,06,30,13,52,23.50
2015,06,30,13,53,23.50
2015,06,30,13,54,23.40
2015,06,30,13,55,23.30
2015,06,30,13,56,23.20
2015,06,30,13,57,23.20
2015,06,30,13,58,23.30
2015,06,30,13,59,23.30
2015,06,30,14,00,23.50
2015,06,30,14,01,23.60
2015,06,30,14,02,23.70
2015,06,30,14,03,23.70
2015,06,30,14,04,23.70
2015,06,30,14,05,23.70
2015,06,30,14,06,23.70
2015,06,30,14,07,23.70
2015,06,30,14,08,23.70
2015,06,30,14,09,23.80
2015,06,30,14,10,23.80
2015,06,30,14,11,23.80
2015,06,30,14,12,23.80
2015,06,30,14,13,23.80
2015,06,30,14,14,23.80
2015,06,30,14,15,23.80
2015,06,30,14,16,23.80
2015,06,30,14,17,23.70
2015,06,30,14,18,23.60
2015,06,30,14,19,23.50
2015,06,30,14,20,23.50
2015,06,30,14,21,23.40
2015,06,30,14,22,23.30
2015,06,30,14,23,23.30
2015,06,30,14,24,23.40
2015,06,30,14,25,23.40
2015,06,30,14,26,23.40
2015,06,30,14,27,23.30
2015,06,30,14,28,23.20
2015,06,30,14,29,23.20
2015,06,30,14,30,23.20
2015,06,30,14,31,23.30
2015,06,30,14,32,23.30
2015,06,30,14,33,23.30
2015,06,30,14,34,23.40
2015,06,30,14,35,23.50
2015,06,30,14,36,23.50
2015,06,30,14,37,23.50
2015,06,30,14,38,23.40
2015,06,30,14,39,23.40
2015,06,30,14,40,23.40
2015,06,30,14,41,23.40
2015,06,30,14,42,23.30
2015,06,30,14,43,23.30
2015,06,30,14,44,23.30
2015,06,30,14,45,23.40
2015,06,30,14,46,23.30
2015,06,30,14,47,23.30
2015,06,30,14,48,23.20
2015,06,30,14,49,23.10
2015,06,30,14,50,23.10
2015,06,30,14,51,23.00
2015,06,30,14,52,23.00
2015,06,30,14,53,23.00
2015,06,30,14,54,23.00
2015,06,30,14,55,23.00
2015,06,30,14,56,23.00
2015,06,30,14,57,23.00
2015,06,30,14,58,23.00
2015,06,30,14,59,23.10
2015,06,30,15,00,23.10
2015,06,30,15,01,23.10
2015,06,30,15,02,23.10
2015,06,30,15,03,23.10
2015,06,30,15,04,23.10
2015,06,30,15,05,23.10
2015,06,30,15,06,23.10
2015,06,30,15,07,23.10
2015,06,30,15,08,23.10
2015,06,30,15,09,23.10
2015,06,30,15,10,23.10
2015,06,30,15,11,23.10
2015,06,30,15,12,23.10
2015,06,30,15,13,23.20
2015,06,30,15,14,23.10
2015,06,30,15,15,23.20
2015,06,30,15,16,23.20
2015,06,30,15,17,23.20
2015,06,30,15,18,23.20
2015,06,30,15,19,23.20
2015,06,30,15,20,23.10
2015,06,30,15,21,23.10
2015,06,30,15,22,23.10
2015,06,30,15,23,23.10
2015,06,30,15,24,23.00
2015,06,30,15,25,23.00
2015,06,30,15,26,23.00
2015,06,30,15,27,23.00
2015,06,30,15,28,22.90
2015,06,30,15,29,22.90
2015,06,30,15,30,22.80
2015,06,30,15,31,22.80
2015,06,30,15,32,22.90
2015,06,30,15,33,23.00
2015,06,30,15,34,22.90
2015,06,30,15,35,23.00
2015,06,30,15,36,23.10
2015,06,30,15,37,23.20
2015,06,30,15,38,23.20
2015,06,30,15,39,23.20
2015,06,30,15,40,23.10
2015,06,30,15,41,23.10
2015,06,30,15,42,23.10
2015,06,30,15,43,23.10
2015,06,30,15,44,23.10
2015,06,30,15,45,23.10
2015,06,30,15,46,23.10
2015,06,30,15,47,23.20
2015,06,30,15,48,23.20
2015,06,30,15,49,23.20
2015,06,30,15,50,23.20
2015,06,30,15,51,23.10
2015,06,30,15,52,23.20
2015,06,30,15,53,23.20
2015,06,30,15,54,23.20
2015,06,30,15,55,23.20
2015,06,30,15,56,23.20
2015,06,30,15,57,23.30
2015,06,30,15,58,23.30
2015,06,30,15,59,23.30
2015,06,30,16,00,23.30
2015,06,30,16,01,23.20
2015,06,30,16,02,23.20
2015,06,30,16,03,23.10
2015,06,30,16,04,23.10
2015,06,30,16,05,23.00
2015,06,30,16,06,22.90
2015,06,30,16,07,22.90
2015,06,30,16,08,22.90
2015,06,30,16,09,23.00
2015,06,30,16,10,23.00
2015,06,30,16,11,23.00
2015,06,30,16,12,23.00
2015,06,30,16,13,23.00
2015,06,30,16,14,22.90
2015,06,30,16,15,23.00
2015,06,30,16,16,23.00
2015,06,30,16,17,23.00
2015,06,30,16,18,23.00
2015,06,30,16,19,22.80
2015,06,30,16,20,22.80
2015,06,30,16,21,22.70
2015,06,30,16,22,22.70
2015,06,30,16,23,22.70
2015,06,30,16,24,22.70
2015,06,30,16,25,22.80
2015,06,30,16,26,22.80
2015,06,30,16,27,22.80
2015,06,30,16,28,22.80
2015,06,30,16,29,22.90
2015,06,30,16,30,22.90
2015,06,30,16,31,22.90
2015,06,30,16,32,22.90
2015,06,30,16,33,22.90
2015,06,30,16,34,22.80
2015,06,30,16,35,22.80
2015,06,30,16,36,22.70
2015,06,30,16,37,22.70
2015,06,30,16,38,22.70
2015,06,30,16,39,22.60
2015,06,30,16,40,22.60
2015,06,30,16,41,22.60
2015,06,30,16,42,22.60
2015,06,30,16,43,22.60
2015,06,30,16,44,22.60
2015,06,30,16,45,22.60
2015,06,30,16,46,22.60
2015,06,30,16,47,22.50
2015,06,30,16,48,22.50
2015,06,30,16,49,22.40
2015,06,30,16,50,22.40
2015,06,30,16,51,22.30
2015,06,30,16,52,22.40
2015,06,30,16,53,22.50
2015,06,30,16,54,22.60
2015,06,30,16,55,22.70
2015,06,30,16,56,22.70
2015,06,30,16,57,22.80
2015,06,30,16,58,22.80
2015,06,30,16,59,22.80
2015,06,30,17,00,22.80
2015,06,30,17,01,22.80
2015,06,30,17,02,22.80
2015,06,30,17,03,22.80
2015,06,30,17,04,22.80
2015,06,30,17,05,22.90
2015,06,30,17,06,22.90
2015,06,30,17,07,22.90
2015,06,30,17,08,22.90
2015,06,30,17,09,23.00
2015,06,30,17,10,23.00
2015,06,30,17,11,23.00
2015,06,30,17,12,23.00
2015,06,30,17,13,22.90
2015,06,30,17,14,23.00
2015,06,30,17,15,23.00
2015,06,30,17,16,23.10
2015,06,30,17,17,23.10
2015,06,30,17,18,23.10
2015,06,30,17,19,23.00
2015,06,30,17,20,22.90
2015,06,30,17,21,22.90
2015,06,30,17,22,23.00
2015,06,30,17,23,23.00
2015,06,30,17,24,23.00
2015,06,30,17,25,22.90
2015,06,30,17,26,22.80
2015,06,30,17,27,22.80
2015,06,30,17,28,22.70
2015,06,30,17,29,22.70
2015,06,30,17,30,22.70
2015,06,30,17,31,22.70
2015,06,30,17,32,22.70
2015,06,30,17,33,22.70
2015,06,30,17,34,22.70
2015,06,30,17,35,22.70
2015,06,30,17,36,22.70
2015,06,30,17,37,22.80
2015,06,30,17,38,22.90
2015,06,30,17,39,22.90
2015,06,30,17,40,22.90
2015,06,30,17,41,23.00
2015,06,30,17,42,22.90
2015,06,30,17,43,22.90
2015,06,30,17,44,22.90
2015,06,30,17,45,22.90
2015,06,30,17,46,23.00
2015,06,30,17,47,23.00
2015,06,30,17,48,23.00
2015,06,30,17,49,23.00
2015,06,30,17,50,23.10
2015,06,30,17,51,23.10
2015,06,30,17,52,23.10
2015,06,30,17,53,23.10
2015,06,30,17,54,23.10
2015,06,30,17,55,23.10
2015,06,30,17,56,23.10
2015,06,30,17,57,23.00
2015,06,30,17,58,22.90
2015,06,30,17,59,22.90
2015,06,30,18,00,22.80
2015,06,30,18,01,22.80
2015,06,30,18,02,22.60
2015,06,30,18,03,22.50
2015,06,30,18,04,22.40
2015,06,30,18,05,22.30
2015,06,30,18,06,22.30
2015,06,30,18,07,22.30
2015,06,30,18,08,22.30
2015,06,30,18,09,22.30
2015,06,30,18,10,22.30
2015,06,30,18,11,22.40
2015,06,30,18,12,22.40
2015,06,30,18,13,22.40
2015,06,30,18,14,22.50